Tracking 29065 objects as of 22-Jul-2024
HD Live streaming from Space Station
objects crossing your sky now

LEASAT 5

Track LEASAT 5 now!
LEASAT 5 is classified as:


NORAD ID: 20410
Int'l Code: 1990-002B
Perigee: 35,961.4 km
Apogee: 36,008.2 km
Inclination: 11.3 °
Period: 1,445.9 minutes
Semi major axis: 42355 km
RCS: 12.5892 m2 (large)
Launch date: January 9, 1990
Source: United States (US)
Launch site: AIR FORCE EASTERN TEST RANGE (AFETR)

Ultra High Frequency (UHF) satellite communications services to Australia; leased at end of use by U.S. Navy to Royal Australian Navy.
Your satellite tracking list
Your tracking list is empty




NASA's NSSDC Master Catalog

Two Line Element Set (TLE):
1 20410U 90002B   24204.54732221 -.00000273  00000-0  00000+0 0  9998
2 20410  11.2515 355.7642 0005519  89.5150 165.5563  0.99594158111491
Source of the keplerian elements: AFSPC